Powrót do katalogu

SL-16 DEB

LostLEO
NORAD 39893·DEBRIS·🇷🇺 Russia

Wystrzelony Mar 26, 1993 z Baikonur Cosmodrome

Loading…

Następne Przeloty (najbliższe 24 godziny)

TLE

NieaktualneSource: Space-Track

Epoka: Sep 1, 2022, 18:37 UTC

1 39893U 93016BT  22244.77588109  .00002794  00000-0  10908-2 0  9992
2 39893  70.9677 280.7013 0112453  77.2578 284.1091 14.27040030951510

Śledź SL-16 DEB w czasie rzeczywistym z AllMySat

Download on the App Store